Regional Weather Roundup
Issued by NWS

Home | Current Version | Previous Version | Text Only | Print | Product List | Glossary Off
Versions: 1 2 3 4 5 6 7 8 9 10 11 12 13 14 15 16 17 18 19 20 21 22 23 24 25 26 27 28 29 30 31 32 33 34 35 36 37 38 39 40 41 42 43 44 45 46 47 48 49 50

000
ASUS45 KABQ 261610
RWRNM
WEATHER ROUNDUP FOR NEW MEXICO
NATIONAL WEATHER SERVICE ALBUQUERQUE NM
900 AM MST FRI DEC 26 2014

NOTE: "FAIR" MEANS FEW OR NO CLOUDS BELOW 12,000 FEET AGL WITH NO
       SIGNIFICANT WEATHER OR OBSTRUCTIONS TO VISION.

      THIS PRODUCT IS RELEASED AS TWO VERSIONS.  ONE VERSION NEAR
      THE TOP OF THE HOUR CONTAINING PRELIMINARY DATA FROM ALBUQUERQUE
      AND OTHER STATIONS.  A FINAL VERSION WITH ADDITIONAL DATA IS
      ISSUED ABOUT 10 MINUTES AFTER THE HOUR.

NMZ501-503-504-510>518-261700-
NORTHWEST PLATEAU/NORTHCENTRAL MOUNTAINS

CITY           SKY/WX    TMP DP  RH WIND       PRES   REMARKS
FARMINGTON     LGT SNOW  24  22  91 W13       29.76R FOG     WCI  12
LOS ALAMOS     MOSUNNY   24  24 100 S7        29.75S WCI  16
SANTA FE       CLOUDY    27  23  85 SW7       29.78R WCI  19
TAOS           MOSUNNY   18  16  93 SE6       29.75R WCI   9
ANGEL FIRE     LGT SNOW  21  17  84 S12       29.71R VSB 1   WCI   9

$$
NMZ402-403-502-505>509-261700-
WESTCENTRAL MOUNTAINS/SOUTHWEST MOUNTAINS

CITY           SKY/WX    TMP DP  RH WIND       PRES   REMARKS
GALLUP         PTSUNNY   13  10  88 CALM      29.82R
GRANTS         PTSUNNY   22  19  89 E5        29.83R WCI  16
SILVER CITY    MOSUNNY   32  21  64 NW22      29.90R WCI  19

$$
NMZ407-409-411-412-261700-
SOUTHERN DESERTS

CITY           SKY/WX    TMP DP  RH WIND       PRES   REMARKS
LORDSBURG      CLOUDY    34  21  60 NW16      29.94R WCI  23
DEMING         CLOUDY    36  29  75 W9        29.92R WCI  29
LAS CRUCES     CLOUDY    34  33  94 SW8       29.93R WCI  28
HOLLOMAN AFB   PTSUNNY   40  37  89 S13       29.89R WCI  32
ALAMOGORDO     PTSUNNY   39  32  75 S13G25    29.90R WCI  32
T OR C         MOSUNNY   39  18  42 SW8       29.85R WCI  33

$$
NMZ519>523-261700-
CENTRAL VALLEYS/CENTRAL HIGHLANDS

CITY           SKY/WX    TMP DP  RH WIND       PRES   REMARKS
ALBUQUERQUE    FLURRIES  28  25  88 S7        29.84R WCI  21
DOUBLE EAGLE   MOSUNNY   25  19  80 SW10      29.82R WCI  15
MORIARTY ARPT  CLOUDY    29  23  79 W3        29.81R
CLINES CORNERS FLURRIES  24  21  88 W13       29.76R WCI  12
BELEN          PTSUNNY   32  29  90 W10       29.85R WCI  24
SOCORRO        FAIR      38   9  29 W13       29.85R WCI  31

$$
NMZ524>526-539-540-261700-
SOUTHCENTRAL MOUNTAINS

CITY           SKY/WX    TMP DP  RH WIND       PRES   REMARKS
RUIDOSO        CLOUDY    30  27  86 SW8       29.83R WCI  23

$$
NMZ527>531-261700-
NORTHEAST HIGHLANDS/NORTHEAST PLAINS

CITY           SKY/WX    TMP DP  RH WIND       PRES   REMARKS
LAS VEGAS      SNOW      25  23  92 E12       29.77R VSB 1/2 WCI  14
RATON          LGT SNOW  21  17  84 NE13      29.79F VSB 1   WCI   9
CLAYTON        SNOW      25  22  88 N13       29.88R VSB 1/2 WCI  14

$$
NMZ532>537-261700-
EASTCENTRAL PLAINS

CITY           SKY/WX    TMP DP  RH WIND       PRES   REMARKS
TUCUMCARI      LGT SNOW  30  27  88 E12       29.86S FOG     WCI  20
CANNON AFB     PTSUNNY   29  24  81 NE15      29.85R WCI  18
CLOVIS AIRPORT MOSUNNY   28  23  80 N20       29.86S WCI  15

$$
NMZ028-029-538-261700-
SOUTHEAST PLAINS

CITY           SKY/WX    TMP DP  RH WIND       PRES   REMARKS
ROSWELL        LGT RAIN  46  35  65 S12       29.84R
ARTESIA        PTSUNNY   41  28  60 CALM      29.88R
CARLSBAD       PTSUNNY   50  32  50 W21       29.85R
HOBBS          SUNNY     45  32  61 SW12      29.86R


$$



USA.gov is the U.S. government's official web portal to all federal, state and local government web resources and services.